Location: 5810 Zion Rd, Cleves, OH 45002, USA
(39.1922°N, 84.7113°W)
Time: 01:10:05
(UTC-05:00)

Vanguard 2 Rocket - Visible Passes

Search period start: 07 December 2019 00:00
Search period end: 17 December 2019 00:00
Orbit: 554 x 3326 km, 32.9° (Epoch: 06 December)

Date Brightness Start Highest point End Pass type
(mag) Time Alt. Az. Time Alt. Az. Time Alt. Az.
07 Dec 9.3 17:54:23 10° SW 18:06:38 32° SSE 18:14:27 10° E visible
07 Dec 8.1 20:10:19 10° WSW 20:20:40 49° S 20:20:40 49° S visible
08 Dec 8.4 19:08:34 10° SW 19:21:02 47° SSE 19:24:34 32° ESE visible
08 Dec 9.2 21:25:44 10° WSW 21:30:22 27° WSW 21:30:22 27° WSW visible
09 Dec 9.1 18:06:49 10° SW 18:20:44 43° SSE 18:28:27 13° E visible
09 Dec 8.1 20:24:00 10° WSW 20:34:15 54° SSW 20:34:15 54° SSW visible
10 Dec 8.2 19:21:58 10° WSW 19:35:07 55° S 19:38:08 40° ESE visible
10 Dec 9.4 21:39:44 10° W 21:43:57 24° WSW 21:43:57 24° WSW visible
11 Dec 8.9 18:19:50 10° WSW 18:34:47 53° SSE 18:42:00 17° E visible
11 Dec 8.2 20:37:52 10° W 20:47:49 53° SW 20:47:49 53° SW visible
12 Dec 8.1 19:35:40 10° WSW 19:49:11 61° S 19:51:42 47° SE visible
12 Dec 9.6 21:53:49 10° W 21:57:30 22° WSW 21:57:30 22° WSW visible
13 Dec 8.8 18:33:16 10° WSW 18:48:49 60° S 18:55:35 21° ESE visible
13 Dec 8.5 20:51:50 10° W 21:01:23 48° SW 21:01:23 48° SW visible
14 Dec 9.3 17:30:55 10° WSW 17:48:05 57° SSE 17:58:23 10° E visible
14 Dec 8.1 19:49:31 10° W 20:03:12 61° S 20:05:17 51° SE visible
14 Dec 9.8 22:08:02 10° W 22:11:06 18° W 22:11:06 18° W visible
15 Dec 8.7 18:46:58 10° WSW 19:02:51 65° S 19:09:12 25° ESE visible
15 Dec 8.7 21:05:53 10° W 21:15:00 41° SW 21:15:00 41° SW visible
16 Dec 9.2 17:44:23 10° WSW 18:02:04 64° S 18:12:35 10° E visible
16 Dec 8.2 20:03:28 10° W 20:17:10 58° SSW 20:18:56 51° SSE visible
16 Dec 10.0 22:22:32 10° W 22:24:45 15° W 22:24:45 15° W visible
